Location: Poughquag
(41.6090°N, 73.6820°W)
Time: 08:50:31
(UTC-05:00)

DIWATA 2B (PO-101) - Pass Details

Date: 21 November 2025
Orbit: 563 x 574 km, 98.1° (Epoch: 07 December)

Event Time Altitude Azimuth Distance (km) Brightness Sun altitude
Exits shadow 18:41:17 16° 351° (N) 1,540 ? -24.3°
Maximum altitude 18:44:10 38° 289° (WNW) 868 ? -24.8°
Drops below altitude 10° 18:47:54 10° 221° (SW) 1,855 ? -25.5°
Sets 18:50:07 0° 213° (SSW) 2,748 ? -26.0°
